AC4DE-1 Weather Reports


time (UTC)temp
C
wind
direction
speed
KPH
gust
KPH
rain 1hr
cm
rain 24hr
cm
rain mn
cm
humidity
%
barometer
mb
20260503190355 18 236 1.6 0.0 0.00 0.00 0.00 44 1020.7
20260503185854 18 246 1.6 0.0 0.00 0.00 0.00 41 1020.7
20260503185354 18 192 3.2 0.0 0.00 0.00 0.00 42 1020.7
20260503184852 17 203 3.2 0.0 0.00 0.00 0.00 46 1020.8
20260503184352 17 270 1.6 0.0 0.00 0.00 0.00 44 1020.8
20260503183852 17 62 1.6 0.0 0.00 0.00 0.00 42 1020.9
20260503183352 17 159 1.6 0.0 0.00 0.00 0.00 41 1021.0
20260503182351 17 319 1.6 0.0 0.00 0.00 0.00 46 1021.0
20260503181848 16 159 3.2 0.0 0.00 0.00 0.00 47 1021.0
20260503181348 16 209 1.6 0.0 0.00 0.00 0.00 46 1021.2
20260503180847 16 168 3.2 0.0 0.00 0.00 0.00 44 1021.1
20260503180346 17 177 3.2 0.0 0.00 0.00 0.00 43 1021.3
20260503175845 17 161 1.6 0.0 0.00 0.00 0.00 50 1021.4
20260503175345 16 137 1.6 0.0 0.00 0.00 0.00 47 1021.5
20260503174845 16 74 1.6 0.0 0.00 0.00 0.00 47 1021.6
20260503174345 16 119 0.0 0.0 0.00 0.00 0.00 44 1021.7
20260503173844 16 200 3.2 0.0 0.00 0.00 0.00 46 1021.7
20260503173344 16 330 1.6 0.0 0.00 0.00 0.00 46 1021.7
20260503172843 16 330 1.6 0.0 0.00 0.00 0.00 46 1021.7
20260503171842 15 301 1.6 0.0 0.00 0.00 0.00 49 1021.9
20260503171340 15 161 1.6 0.0 0.00 0.00 0.00 46 1022.0
20260503170840 15 310 3.2 0.0 0.00 0.00 0.00 48 1022.0
20260503170339 15 143 3.2 0.0 0.00 0.00 0.00 47 1022.0
20260503150829 12 125 0.0 0.0 0.00 0.00 0.00 73 1022.8
20260503150328 12 110 1.6 0.0 0.00 0.00 0.00 74 1022.8
20260503131251 7 127 0.0 0.0 0.00 0.00 0.00 90 1022.7
20260503130751 7 130 0.0 0.0 0.00 0.00 0.00 90 1022.6
20260503130251 7 360 0.0 0.0 0.00 0.00 0.00 91 1022.6
20260503110726 4 221 0.0 0.0 0.00 0.00 0.00 93 1021.4
20260503110226 4 222 0.0 0.0 0.00 0.00 0.00 93 1021.5
20260503090217 4 360 0.0 0.0 0.00 0.00 0.00 91 1020.8
20260503081211 5 360 0.0 0.0 0.00 0.00 0.00 91 1020.7
20260503080210 5 360 0.0 0.0 0.00 0.00 0.00 90 1020.6
20260503072154 6 360 0.0 0.0 0.00 0.00 0.00 91 1020.3
20260503071655 6 360 0.0 0.0 0.00 0.00 0.00 91 1020.2
20260503071153 6 360 0.0 0.0 0.00 0.00 0.00 91 1020.3
20260503070653 6 360 0.0 0.0 0.00 0.00 0.00 91 1020.3
20260503070153 6 254 0.0 0.0 0.00 0.00 0.00 90 1020.2
20260503060142 6 254 0.0 0.0 0.00 0.00 0.00 90 1020.3
20260503054640 6 360 0.0 0.0 0.00 0.00 0.00 90 1020.2
20260503053638 6 360 0.0 0.0 0.00 0.00 0.00 90 1020.1
20260503053137 6 360 0.0 0.0 0.00 0.00 0.00 90 1020.2
20260503052636 6 360 0.0 0.0 0.00 0.00 0.00 90 1020.1
20260503052135 6 253 0.0 0.0 0.00 0.00 0.00 90 1020.1
20260503051631 6 253 0.0 0.0 0.00 0.00 0.00 90 1020.1
20260503050631 6 253 0.0 0.0 0.00 0.00 0.00 90 1020.0
20260503045629 6 360 0.0 0.0 0.00 0.05 0.00 90 1019.8
20260503045129 6 360 0.0 0.0 0.00 0.05 0.00 89 1019.8
20260503044626 7 360 0.0 0.0 0.00 0.05 0.00 89 1019.7
20260503044125 7 360 0.0 0.0 0.00 0.05 0.00 89 1019.7
20260503043625 7 253 0.0 0.0 0.00 0.05 0.00 89 1019.7
20260503043125 7 360 0.0 0.0 0.00 0.05 0.00 90 1019.7
20260503042624 7 360 0.0 0.0 0.00 0.05 0.00 90 1019.7
20260503042124 7 360 0.0 0.0 0.00 0.05 0.00 90 1019.7
20260503041624 7 253 0.0 0.0 0.00 0.05 0.00 89 1019.6
20260503041123 7 360 0.0 0.0 0.00 0.05 0.00 89 1019.6
20260503040624 7 360 0.0 0.0 0.00 0.05 0.00 89 1019.6
20260503040123 7 360 0.0 0.0 0.00 0.05 0.00 89 1019.6
20260503035623 7 360 0.0 0.0 0.00 0.05 0.00 89 1019.6
20260503035122 7 360 0.0 0.0 0.00 0.05 0.00 89 1019.6
20260503034557 7 360 0.0 0.0 0.00 0.05 0.00 89 1019.6
20260503033556 7 360 0.0 0.0 0.00 0.05 0.00 88 1019.7
20260503033054 7 360 0.0 0.0 0.00 0.05 0.00 87 1019.6
20260503032553 7 253 0.0 0.0 0.00 0.05 0.00 87 1019.7
20260503032054 7 253 0.0 0.0 0.00 0.05 0.00 87 1019.6
20260503031552 7 360 0.0 0.0 0.00 0.05 0.00 87 1019.6
20260503030552 8 360 0.0 0.0 0.00 0.05 0.00 86 1019.5
20260503030052 8 360 0.0 0.0 0.00 0.05 0.00 86 1019.5
20260503025551 8 360 0.0 0.0 0.00 0.05 0.00 86 1019.4
20260503025051 8 360 0.0 0.0 0.00 0.05 0.00 86 1019.5
20260503024550 8 360 0.0 0.0 0.00 0.05 0.00 87 1019.4
20260503024050 8 360 0.0 0.0 0.00 0.05 0.00 86 1019.4
20260503023551 8 360 0.0 0.0 0.00 0.05 0.00 87 1019.3
20260503023050 8 360 0.0 0.0 0.00 0.05 0.00 87 1019.3
20260503022549 8 258 0.0 0.0 0.00 0.05 0.00 86 1019.2
20260503022049 8 360 0.0 0.0 0.00 0.05 0.00 86 1019.1
20260503021548 8 259 0.0 0.0 0.00 0.05 0.00 86 1019.0
20260503021048 8 270 0.0 0.0 0.00 0.05 0.00 86 1018.8
20260503020546 8 360 0.0 0.0 0.00 0.05 0.00 86 1018.7
20260503020045 8 270 0.0 0.0 0.00 0.05 0.00 86 1018.7
20260503015545 8 270 0.0 0.0 0.00 0.05 0.00 85 1018.9
20260503015045 9 360 0.0 0.0 0.00 0.05 0.00 85 1018.8
20260503014544 9 360 0.0 0.0 0.00 0.05 0.00 84 1018.8